Location: Winthrop
(48.4780°N, 120.1850°W)
Time: 03:58:25
(UTC-08:00)

Vanguard 1 Rocket - Pass Details

Date: 02 December 2023
Orbit: 654 x 4218 km, 34.3° (Epoch: 24 February)

Event Time Altitude Azimuth Distance (km) Brightness Sun altitude
Rises 07:08:59 0° 246° (WSW) 7,520 11.7 -4.2°
Reaches altitude 10° 07:15:11 10° 240° (WSW) 5,957 11.3 -3.3°
Maximum altitude 07:29:22 38° 181° (S) 2,716 10.2 -1.3°
Drops below altitude 10° 07:37:17 10° 116° (ESE) 3,350 12.4 -0.2°
Sets 07:39:44 0° 108° (ESE) 4,009 12.5 0.2°
